STARLINK-35969

Last updated on Fri Dec 19 2025 00:02:05 GMT+0000 (Coordinated Universal Time)

1 66523U 25265H 25352.38139049 .00101428 00000+0 17102-2 0 9994 2 66523 43.0034 20.9974 0003334 293.5460 66.5050 15.50611423 4634
UTC large
Height (km)
Speed (km/s)
/
Latitude / Longitude
Inclination (degrees)
Orbital Period (minutes)
Azimuth
Elevation
Range (km)
Doppler Factor

Next 0 passes for location: London (51.5072 / 0.1276)

Sorry there are no passes over London.